TimeBST,TemperatureF,Dew PointF,Humidity,Sea Level PressureIn,VisibilityMPH,Wind Direction,Wind SpeedMPH,Gust SpeedMPH,PrecipitationIn,Events,Conditions,WindDirDegrees,DateUTC
12:20 AM,51.8,50.0,94,29.89,6.2,Variable,3.5,-,N/A,,Mostly Cloudy,0,2012-09-08 23:20:00
12:50 AM,53.6,51.8,94,29.89,6.2,Variable,2.3,-,N/A,,Mostly Cloudy,0,2012-09-08 23:50:00
1:20 AM,53.6,50.0,88,29.86,6.2,South,5.8,-,N/A,,Mostly Cloudy,190,2012-09-09 00:20:00
1:50 AM,51.8,48.2,88,29.86,6.2,SE,3.5,-,N/A,,Scattered Clouds,130,2012-09-09 00:50:00
2:20 AM,50.0,46.4,87,29.86,6.2,Variable,2.3,-,N/A,,Partly Cloudy,0,2012-09-09 01:20:00
2:50 AM,51.8,48.2,88,29.83,6.2,ENE,4.6,-,N/A,,Mostly Cloudy,60,2012-09-09 01:50:00
3:20 AM,51.8,48.2,88,29.83,6.2,ENE,4.6,-,N/A,,Mostly Cloudy,70,2012-09-09 02:20:00
3:50 AM,50.0,46.4,87,29.83,6.2,East,5.8,-,N/A,,Partly Cloudy,100,2012-09-09 02:50:00
4:20 AM,50.0,46.4,87,29.80,6.2,ESE,2.3,-,N/A,,Mostly Cloudy,120,2012-09-09 03:20:00
4:50 AM,51.8,48.2,88,29.80,6.2,Variable,2.3,-,N/A,,Overcast,0,2012-09-09 03:50:00
5:20 AM,51.8,48.2,88,29.77,6.2,ENE,4.6,-,N/A,,Overcast,70,2012-09-09 04:20:00
5:50 AM,50.0,48.2,94,29.77,6.2,East,3.5,-,N/A,,Mostly Cloudy,90,2012-09-09 04:50:00
6:20 AM,50.0,48.2,94,29.77,6.2,ESE,4.6,-,N/A,,Mostly Cloudy,110,2012-09-09 05:20:00
6:50 AM,50.0,46.4,87,29.74,6.2,ESE,5.8,-,N/A,,Scattered Clouds,110,2012-09-09 05:50:00
7:20 AM,50.0,48.2,94,29.74,6.2,East,5.8,-,N/A,,Partly Cloudy,90,2012-09-09 06:20:00
7:50 AM,51.8,48.2,88,29.74,6.2,East,4.6,-,N/A,,Partly Cloudy,100,2012-09-09 06:50:00
8:20 AM,51.8,48.2,88,29.74,6.2,East,4.6,-,N/A,,Mostly Cloudy,80,2012-09-09 07:20:00
8:50 AM,53.6,50.0,88,29.71,6.2,East,5.8,-,N/A,,Mostly Cloudy,100,2012-09-09 07:50:00
9:20 AM,55.4,50.0,82,29.71,6.2,Variable,3.5,-,N/A,,Partly Cloudy,0,2012-09-09 08:20:00
9:50 AM,55.4,51.8,88,29.71,6.2,East,5.8,-,N/A,,Partly Cloudy,90,2012-09-09 08:50:00
10:20 AM,57.2,51.8,82,29.68,6.2,ENE,6.9,-,N/A,,Partly Cloudy,70,2012-09-09 09:20:00
10:50 AM,59.0,51.8,77,29.68,6.2,Variable,3.5,-,N/A,,Partly Cloudy,0,2012-09-09 09:50:00
11:20 AM,59.0,53.6,82,29.65,6.2,NE,4.6,-,N/A,,Scattered Clouds,50,2012-09-09 10:20:00
11:50 AM,60.8,53.6,77,29.65,6.2,Variable,3.5,-,N/A,,Mostly Cloudy,0,2012-09-09 10:50:00
12:20 PM,60.8,55.4,82,29.65,6.2,South,5.8,-,N/A,,Mostly Cloudy,170,2012-09-09 11:20:00
12:50 PM,64.4,57.2,77,29.62,6.2,South,8.1,-,N/A,,Scattered Clouds,180,2012-09-09 11:50:00
1:20 PM,64.4,57.2,77,29.62,6.2,South,15.0,-,N/A,,Mostly Cloudy,190,2012-09-09 12:20:00
1:50 PM,64.4,55.4,73,29.62,6.2,South,13.8,-,N/A,,Mostly Cloudy,180,2012-09-09 12:50:00
2:20 PM,64.4,57.2,77,29.59,6.2,South,18.4,-,N/A,,Mostly Cloudy,190,2012-09-09 13:20:00
2:50 PM,64.4,57.2,77,29.59,6.2,South,16.1,-,N/A,,Mostly Cloudy,190,2012-09-09 13:50:00
3:20 PM,64.4,57.2,77,29.56,6.2,South,12.7,-,N/A,,Mostly Cloudy,190,2012-09-09 14:20:00
3:50 PM,64.4,57.2,77,29.56,6.2,SSW,12.7,-,N/A,,Mostly Cloudy,200,2012-09-09 14:50:00
4:20 PM,62.6,57.2,82,29.53,6.2,South,13.8,-,N/A,Rain,Light Rain,180,2012-09-09 15:20:00
4:50 PM,62.6,59.0,88,29.53,4.3,South,9.2,-,N/A,Rain,Light Rain,190,2012-09-09 15:50:00
5:20 PM,60.8,59.0,94,29.53,3.1,SSW,8.1,-,N/A,Rain,Light Rain,200,2012-09-09 16:20:00
5:50 PM,60.8,59.0,94,29.50,3.1,South,6.9,-,N/A,Rain,Light Rain,190,2012-09-09 16:50:00
6:20 PM,60.8,59.0,94,29.50,6.2,South,6.9,-,N/A,,Mostly Cloudy,170,2012-09-09 17:20:00
6:50 PM,62.6,59.0,88,29.50,6.2,South,9.2,-,N/A,,Overcast,170,2012-09-09 17:50:00
7:20 PM,62.6,59.0,88,29.50,6.2,South,10.4,-,N/A,,Overcast,190,2012-09-09 18:20:00
7:50 PM,62.6,59.0,88,29.47,6.2,South,9.2,-,N/A,Rain,Light Rain,180,2012-09-09 18:50:00
8:20 PM,60.8,59.0,94,29.47,6.2,South,13.8,-,N/A,Rain,Light Rain,190,2012-09-09 19:20:00
8:50 PM,60.8,59.0,94,29.47,6.2,SSW,17.3,-,N/A,Rain,Light Rain,210,2012-09-09 19:50:00
9:20 PM,60.8,59.0,94,29.47,6.2,SSW,15.0,-,N/A,,Overcast,210,2012-09-09 20:20:00
9:50 PM,60.8,59.0,94,29.47,6.2,SW,16.1,-,N/A,,Overcast,220,2012-09-09 20:50:00
10:20 PM,60.8,59.0,94,29.47,6.2,SW,15.0,27.6,N/A,,Mostly Cloudy,230,2012-09-09 21:20:00
10:50 PM,60.8,59.0,94,29.47,5.0,SW,15.0,-,N/A,,Light Drizzle,230,2012-09-09 21:50:00
11:20 PM,60.8,59.0,94,29.47,5.0,SW,12.7,-,N/A,,Overcast,230,2012-09-09 22:20:00
11:50 PM,60.8,59.0,94,29.47,5.0,SW,17.3,-,N/A,,Light Drizzle,230,2012-09-09 22:50:00